Kremmling, CO

6:15 PM MST on December 10, 2017 (GMT -0700)
Kremmling

Weather History for K20V - February, 2012

Change the Weather History Date:

Tuesday, February 28, 2012

  Actual Average Record
Temperature  
Mean Temperature 28 °F -  
Max Temperature 35 °F - 55 °F (2006)
Min Temperature 21 °F - 1 °F (2005)
Degree Days  
Heating Degree Days 37    
Month to date heating degree days  
Cooling Degree Days 0    
Month to date cooling degree days  
Moisture  
Dew Point 18 °F    
Average Humidity 67    
Maximum Humidity 86    
Minimum Humidity 48    
Precipitation  
Precipitation 0.06 in - 0.12 in (2007)
Sea Level Pressure  
Sea Level Pressure 29.66 in    
Wind  
Wind Speed 4 mph (West)    
Max Wind Speed 24 mph    
Max Gust Speed 32 mph    
Visibility 8 miles    
Events Snow    
T = Trace of Precipitation, MM = Missing Value Source: NWS Daily Summary

Daily Weather History Graph

Daily Weather History Graph

Search for Another Location

Airport or City:

Trip Planner

Search our weather history database for the weather conditions in past years. The results will help you decide how hot, cold, wet, or windy it might be!

Date:

Astronomy

Feb. 28, 2012 Rise Set
Actual Time 6:41 AM MST 5:55 PM MST
Civil Twilight 6:13 AM MST 6:22 PM MST
Nautical Twilight 5:42 AM MST 6:54 PM MST
Astronomical Twilight 5:11 AM MST 7:25 PM MST
Moon 9:50 AM MST (2/28) No Moon Set
Length of Visible Light 12h 09m
Length of Day
11h 14m
Waxing Crescent, 38% of the Moon is Illuminated
Feb 28
Waxing Crescent
Feb 29
First Quarter
Mar 8
Full
Mar 14
Last Quarter
Mar 22
New

Hourly Weather History & Observations

Time (MST) Temp. Windchill Dew Point Humidity Pressure Visibility Wind Dir Wind Speed Gust Speed Precip Events Conditions
12:00 AM 23.0 °F 18.4 °F 15.8 °F 74% 29.75 in 10.0 mi North 3.5 mph - N/A   Clear
12:20 AM 21.2 °F - 14.0 °F 74% 29.74 in 10.0 mi Calm Calm - N/A   Clear
12:40 AM 21.2 °F - 14.0 °F 74% 29.74 in 10.0 mi Calm Calm - N/A   Clear
1:00 AM 23.0 °F - 15.8 °F 74% 29.74 in 10.0 mi Calm Calm - N/A   Clear
1:19 AM 23.0 °F - 17.6 °F 80% 29.73 in 10.0 mi Calm Calm - N/A   Scattered Clouds
1:36 AM 23.0 °F - 15.8 °F 74% 29.73 in 10.0 mi Calm Calm - N/A   Scattered Clouds
2:00 AM 23.0 °F - 15.8 °F 74% 29.71 in 10.0 mi Calm Calm - N/A   Clear
2:20 AM 21.2 °F - 14.0 °F 74% 29.69 in 10.0 mi Calm Calm - N/A   Clear
2:40 AM 21.2 °F - 14.0 °F 74% 29.68 in 10.0 mi Calm Calm - N/A   Scattered Clouds
3:00 AM 23.0 °F - 15.8 °F 74% 29.66 in 10.0 mi Calm Calm - N/A   Mostly Cloudy
3:20 AM 23.0 °F - 15.8 °F 74% 29.66 in 10.0 mi Calm Calm - N/A   Overcast
3:40 AM 23.0 °F - 15.8 °F 74% 29.65 in 10.0 mi Calm Calm - N/A   Overcast
4:00 AM 23.0 °F - 15.8 °F 74% 29.64 in 10.0 mi Calm Calm - N/A   Overcast
4:20 AM 23.0 °F - 17.6 °F 80% 29.65 in 3.0 mi Calm Calm - N/A Snow Light Snow
4:40 AM 23.0 °F - 17.6 °F 80% 29.64 in 2.5 mi Calm Calm - N/A Snow Light Snow
5:00 AM 23.0 °F - 19.4 °F 86% 29.63 in 1.0 mi Calm Calm - N/A Snow Snow
5:20 AM 23.0 °F - 19.4 °F 86% 29.61 in 1.0 mi Calm Calm - N/A Snow Snow
5:40 AM 23.0 °F 15.8 °F 19.4 °F 86% 29.61 in 1.5 mi SW 5.8 mph - N/A Snow Light Snow
6:00 AM 24.8 °F 16.9 °F 21.2 °F 86% 29.61 in 1.0 mi SW 6.9 mph - N/A Snow Snow
6:19 AM 26.6 °F 22.6 °F 23.0 °F 86% 29.61 in 0.8 mi South 3.5 mph - N/A Snow Heavy Snow
6:40 AM 26.6 °F 21.2 °F 23.0 °F 86% 29.62 in 0.5 mi ESE 4.6 mph - 0.01 in Snow Heavy Snow
7:00 AM 30.2 °F 23.4 °F 26.6 °F 86% 29.63 in 1.0 mi WSW 6.9 mph - N/A Snow Light Snow
7:20 AM 32.0 °F - 23.0 °F 69% 29.61 in 10.0 mi Calm Calm - 0.01 in   Mostly Cloudy
7:40 AM 32.0 °F 24.8 °F 21.2 °F 64% 29.61 in 10.0 mi North 8.1 mph - 0.02 in   Mostly Cloudy
7:59 AM 32.0 °F 25.6 °F 19.4 °F 60% 29.61 in 10.0 mi East 6.9 mph - 0.03 in   Overcast
8:20 AM 32.0 °F 23.0 °F 17.6 °F 55% 29.63 in 10.0 mi SSW 11.5 mph 19.6 mph N/A   Overcast
8:40 AM 32.0 °F - 17.6 °F 55% 29.63 in 10.0 mi Calm Calm - 0.01 in   Mostly Cloudy
9:00 AM 32.0 °F 27.5 °F 15.8 °F 51% 29.61 in 10.0 mi West 4.6 mph - N/A   Mostly Cloudy
9:19 AM 32.0 °F 26.4 °F 15.8 °F 51% 29.61 in 10.0 mi WNW 5.8 mph - N/A   Mostly Cloudy
9:40 AM 32.0 °F 27.5 °F 14.0 °F 48% 29.61 in 10.0 mi SE 4.6 mph - 0.01 in   Mostly Cloudy
10:00 AM 32.0 °F - 17.6 °F 55% 29.61 in 10.0 mi Calm Calm - N/A   Overcast
10:20 AM 32.0 °F 24.8 °F 15.8 °F 51% 29.61 in 10.0 mi SSW 8.1 mph - N/A   Mostly Cloudy
10:40 AM 32.0 °F 21.2 °F 19.4 °F 60% 29.61 in 7.0 mi WSW 16.1 mph 26.5 mph N/A   Overcast
11:00 AM 30.2 °F 23.4 °F 19.4 °F 64% 29.61 in 10.0 mi West 6.9 mph 25.3 mph N/A   Scattered Clouds
11:20 AM 32.0 °F 21.2 °F 21.2 °F 64% 29.62 in 10.0 mi West 16.1 mph 20.7 mph N/A   Scattered Clouds
11:40 AM 32.0 °F 23.6 °F 19.4 °F 60% 29.63 in 10.0 mi WSW 10.4 mph - N/A   Scattered Clouds
12:00 PM 33.8 °F 25.3 °F 21.2 °F 60% 29.63 in 10.0 mi WSW 11.5 mph - N/A   Scattered Clouds
12:20 PM 33.8 °F 27.0 °F 19.4 °F 56% 29.61 in 10.0 mi WSW 8.1 mph 19.6 mph N/A   Scattered Clouds
12:40 PM 35.6 °F 27.1 °F 19.4 °F 52% 29.60 in 10.0 mi WSW 12.7 mph 25.3 mph N/A   Mostly Cloudy
1:00 PM 33.8 °F 22.8 °F 17.6 °F 52% 29.60 in 10.0 mi WSW 18.4 mph 24.2 mph N/A   Overcast
1:20 PM 30.2 °F 22.6 °F 23.0 °F 75% 29.63 in 0.2 mi West 8.1 mph 29.9 mph N/A Snow Snow
1:40 PM 33.8 °F 21.9 °F 21.2 °F 60% 29.63 in 10.0 mi WSW 21.9 mph 26.5 mph N/A   Overcast
2:00 PM 33.8 °F 23.9 °F 23.0 °F 65% 29.64 in 4.0 mi West 15.0 mph 24.2 mph N/A Snow Light Snow
2:20 PM 33.8 °F 25.8 °F 21.2 °F 60% 29.65 in 10.0 mi West 10.4 mph 16.1 mph N/A   Overcast
2:40 PM 35.6 °F 28.6 °F 21.2 °F 56% 29.67 in 7.0 mi NW 9.2 mph 16.1 mph N/A Snow Light Snow
3:00 PM 35.6 °F 24.8 °F 17.6 °F 48% 29.68 in 10.0 mi West 19.6 mph 27.6 mph N/A   Scattered Clouds
3:19 PM 32.0 °F 22.1 °F 21.2 °F 64% 29.69 in 7.0 mi NNW 13.8 mph 20.7 mph N/A   Mostly Cloudy
3:38 PM 32.0 °F 24.2 °F 21.2 °F 64% 29.71 in 3.0 mi NW 9.2 mph 25.3 mph N/A Snow Light Snow
3:59 PM 28.4 °F 14.1 °F 17.6 °F 64% 29.73 in 3.0 mi NW 24.2 mph 32.2 mph N/A   Haze
4:19 PM 30.2 °F 20.2 °F 17.6 °F 60% 29.74 in 10.0 mi NW 12.7 mph 21.9 mph N/A   Mostly Cloudy
4:39 PM 30.2 °F 19.3 °F 17.6 °F 60% 29.74 in 10.0 mi NW 15.0 mph 19.6 mph N/A   Scattered Clouds
4:59 PM 28.4 °F 18.5 °F 17.6 °F 64% 29.76 in 10.0 mi NW 11.5 mph - N/A   Scattered Clouds
5:19 PM 28.4 °F 23.3 °F 17.6 °F 64% 29.76 in 10.0 mi WNW 4.6 mph - N/A   Mostly Cloudy
5:39 PM 28.4 °F 23.3 °F 19.4 °F 69% 29.77 in 2.0 mi WNW 4.6 mph - N/A Snow Light Snow
5:59 PM 26.6 °F 17.5 °F 19.4 °F 74% 29.78 in 1.0 mi NW 9.2 mph - N/A Snow Light Snow
6:19 PM 24.8 °F 11.9 °F 19.4 °F 80% 29.80 in 0.5 mi NW 16.1 mph 27.6 mph N/A Snow Snow
6:39 PM 24.8 °F 19.1 °F 21.2 °F 86% 29.80 in 2.0 mi West 4.6 mph - N/A Snow Light Snow
6:59 PM 23.0 °F - 19.4 °F 86% 29.81 in 5.0 mi Calm Calm - N/A Snow Light Snow
7:19 PM 24.8 °F 16.1 °F 19.4 °F 80% 29.82 in 1.8 mi NNW 8.1 mph - N/A Snow Light Snow
7:39 PM 24.8 °F 14.6 °F 17.6 °F 74% 29.82 in 5.0 mi WNW 10.4 mph 16.1 mph N/A Snow Light Snow
7:59 PM 23.0 °F 12.4 °F 15.8 °F 74% 29.82 in 5.0 mi NW 10.4 mph 18.4 mph N/A Snow Light Snow
8:19 PM 23.0 °F 8.7 °F 14.0 °F 68% 29.83 in 5.0 mi NW 18.4 mph 25.3 mph N/A Snow Light Snow
8:39 PM 23.0 °F 11.7 °F 15.8 °F 74% 29.84 in 3.0 mi NNW 11.5 mph 19.6 mph N/A Snow Light Snow
8:59 PM 23.0 °F 9.6 °F 12.2 °F 63% 29.86 in 7.0 mi NW 16.1 mph 23.0 mph N/A   Overcast
9:19 PM 23.0 °F 13.1 °F 14.0 °F 68% 29.88 in 10.0 mi NNW 9.2 mph - N/A Snow Light Snow
9:39 PM 23.0 °F 14.7 °F 14.0 °F 68% 29.89 in 10.0 mi North 6.9 mph - N/A   Overcast
9:59 PM 21.2 °F 10.9 °F 14.0 °F 74% 29.90 in 10.0 mi NNW 9.2 mph - N/A   Scattered Clouds
10:19 PM 21.2 °F 9.5 °F 12.2 °F 68% 29.91 in 10.0 mi NNW 11.5 mph - N/A   Mostly Cloudy
10:39 PM 21.2 °F 8.9 °F 12.2 °F 68% 29.92 in 7.0 mi NNW 12.7 mph - N/A Snow Light Snow
10:59 PM 21.2 °F 10.9 °F 10.4 °F 63% 29.93 in 10.0 mi WNW 9.2 mph 18.4 mph N/A   Mostly Cloudy
11:19 PM 19.4 °F 9.5 °F 8.6 °F 63% 29.94 in 10.0 mi NW 8.1 mph - N/A   Scattered Clouds
11:39 PM 21.2 °F 12.6 °F 6.8 °F 54% 29.94 in 10.0 mi WNW 6.9 mph - N/A   Scattered Clouds
11:59 PM 19.4 °F 11.5 °F 6.8 °F 58% 29.94 in 10.0 mi WNW 5.8 mph - N/A   Clear